FENGYUN 1C DEB *, 47015

Orbit data source: Space-Track

FENGYUN 1C DEB *, 47015 is space debris in SSO originally from a launch on Mon, 10 May 1999 UTC launched from the Taiyaun Space Center, China (TSC). Fengyun 1C debris stems from the Chinese weather satellite Fengyun-1C, which was intentionally destroyed by a Chinese anti-satellite missile in 2007. This event dramatically increased the amount of space debris, with thousands of trackable fragments posing hazards to satellites and human spaceflight. The Fengyun 1C debris cloud has become a focal point in discussions about space sustainability and the need for international regulations to prevent the creation of new debris.

Loading next visibility...
Identifier
47015, 1999-025FAR
Orbit
SSO
Country
Flag of CNCN / PRC
Related business
Manufacturer
Unknown
Mission
Spacecraft
Bus & Motor
Unknown
Mass
Unknown
Launch date (UTC)
1999-05-10 (27 years ago)
Launch vehicle
Unknown
Launch site
Taiyaun Space Center, China (TSC)
Object type
Payload
Rocket body
Debris
Shape & HBR
Unknown shape, 0.1 m
Radar Cross Section
Small (<0.1 m²)

Expand to show TLE details & history
Last TLE update: 6 days ago

TLE from 6 days ago
0 FENGYUN 1C DEB *
1 47015U 99025FAR 26166.96018212  .00005496  00000-0  44128-3 0  9998
2 47015  98.6873 246.8772 0165538 235.6576 122.8883 14.90383652671386
Epoch: 2026-06-15T23:02Z
TLE epoch observation values (Epoch: 2026-06-15T23:02:39.735Z)
Latitude
-0°
Longitude
-3.02744°
Altitude
663.788 km
Speed
7.491 km/s
True Right ascension
16h 27m 30s
True Declination
0° 00' 00"
Sunlit
Object was in full shadow at epoch
Visualization orbit readout
Latitude
Unknown
Longitude
Unknown
Altitude
Unknown
Speed
Unknown
Apparent Right ascension
Unknown
Apparent Declination
Unknown
Sunlit
N/A
Visualization observer readout
Local Sidereal Time
21:37:21
Azimuth
Unknown
Elevation
Unknown
Doppler factor
Unknown
Orbital elements
Apogee altitude
709.213 km
Perigee altitude
478.389 km
Semi-major axis
6,971.938 km
Eccentricity
0.01655
Inclination
98.6873°
RAAN
246.8772°
Arg. of periapsis
235.6576°
True anomaly
124.4633°
Mean anomaly
122.8883°
Eccentric anomaly
123.67758°
Mean motion
3.72832 °/min
Orbital period
96.56 mins
BSTAR
0.00044128
Loading maneuver chart data...
Computing Atmospheric mass density...
Loading historical data...
Loading historical data...
Loading historical data...
Loading historical data...
Loading historical data...
Loading historical data...
Loading historical data...

Documentation

Showing up to 5 results
|